Location: Newark
(45.5000°N, 11.4167°E)
Time: 16:25:11
(UTC+00:00)

Vanguard 3 - Pass Details

Date: 26 August 2019
Orbit: 508 x 3263 km, 33.4° (Epoch: 21 September)

Event Time Altitude Azimuth Distance (km) Brightness Sun altitude
Rises 13:42:29 0° 217° (SW) 6,155 12.4 43.0°
Reaches altitude 10° 13:48:25 10° 204° (SSW) 4,605 11.8 42.2°
Maximum altitude 13:56:13 20° 163° (SSE) 3,025 10.5 41.0°
Drops below altitude 10° 14:01:46 10° 119° (ESE) 3,123 10.0 40.2°
Sets 14:04:48 0° 102° (ESE) 3,724 10.2 39.8°
